Saturday, January 20, 2018, 3:01 PM GMT
Back to Local

CXSH, Shawinigan CS , Que.

Location: , , Canada Lat: 46.583
Local Time: 3:01 PM GMT (15:01 GMT) Lon: -72.583
Time Zone: GMT Elev: 360 ft

Show me the last for .
Show Coded

Time T Td Feel RH Dir Speed Gust Alt SLP Vis Weather Sky Remarks
2018-01-20 14:00 33 26 25 75 230° 10 - - 29.43 0 None
2018-01-20 13:00 30 25 25 81 220° 6 - - 29.40 0 None
2018-01-20 12:00 29 25 22 81 220° 8 - - 29.39 0 None
2018-01-20 11:00 29 26 19 88 210° 10 - - 29.38 0 None
2018-01-20 10:00 28 24 20 82 220° 8 - - 29.39 0 Peak wind: 21 mph (19 kts) from 200° at 27 min
2018-01-20 09:00 28 24 17 82 210° 15 - - 29.39 0 Peak wind: 21 mph (19 kts) from 220° at 01 min
2018-01-20 08:00 28 26 18 92 200° 12 - - 29.44 0 Peak wind: 19 mph (17 kts) from 220° at 21 min
2018-01-20 07:00 28 23 14 81 210° 14 21 - 29.49 0 Peak wind: 23 mph (20 kts) from 210° at 17 min
2018-01-20 06:00 27 23 14 83 200° 14 20 - 29.52 0 Peak wind: 21 mph (19 kts) from 190° at 48 min
2018-01-20 05:00 29 24 16 79 200° 13 21 - 29.56 0 Peak wind: 23 mph (20 kts) from 190° at 18 min
2018-01-20 04:00 27 24 15 87 190° 12 17 - 29.60 0 None
2018-01-20 03:00 26 25 17 94 210° 9 - - 29.65 0 None
2018-01-20 02:00 26 25 18 94 210° 7 - - 29.69 0 None
2018-01-20 01:00 26 23 16 90 210° 9 - - 29.71 0 None
2018-01-20 00:00 25 22 16 88 210° 9 - - 29.75 0 None
2018-01-19 23:00 25 22 16 87 210° 9 - - 29.75 0 None
2018-01-19 22:00 25 21 16 83 210° 8 - - 29.76 0 None
2018-01-19 21:00 25 21 17 85 200° 7 - - 29.76 0 None
2018-01-19 20:00 25 22 15 87 220° 10 - - 29.79 0 None
2018-01-19 19:00 25 22 16 86 220° 9 - - 29.80 0 None
2018-01-19 18:00 25 22 16 86 210° 8 - - 29.80 0 None
2018-01-19 17:00 24 21 15 85 190° 9 - - 29.82 0 None
2018-01-19 16:00 24 20 15 85 210° 8 - - 29.84 0 None

Support USWX by starting your Amazon purchase here.